This is the latest recevied weather packets stored in our database for station/object WC4PEM-7. If no packets are shown the sender has not sent any weather packets the latest 10 day(s).
| Time | Temp. | Humidity | Pressure | Rain* | Wind** | Luminosity | Snow |
|---|---|---|---|---|---|---|---|
| 1787418909 | 33.33° C | 63% | 1016.4 hPa | 0 mm | - | - | - |
| 1787418730 | 33.33° C | 61% | 1016.5 hPa | 0 mm | - | - | - |
| 1787418609 | 33.33° C | 61% | 1016.5 hPa | 0 mm | - | - | - |
| 1787418409 | 33.33° C | 62% | 1016.9 hPa | 0 mm | - | - | - |
| 1787418310 | 33.33° C | 62% | 1016.9 hPa | 0 mm | - | - | - |
| 1787418009 | 33.33° C | 65% | 1016.6 hPa | 0 mm | - | - | - |
| 1787417807 | 32.78° C | 63% | 1016.6 hPa | 0 mm | - | - | - |
| 1787417710 | 32.78° C | 63% | 1016.6 hPa | 0 mm | - | - | - |
| 1787417410 | 32.78° C | 64% | 1016.7 hPa | 0 mm | - | - | - |
| 1787417110 | 33.33° C | 63% | 1016.5 hPa | 0 mm | - | - | - |
| 1787416860 | 32.78° C | 64% | 1016.5 hPa | 0 mm | - | - | - |
| 1787416810 | 32.78° C | 64% | 1016.5 hPa | 0 mm | - | - | - |
| 1787416633 | 32.22° C | 66% | 1016.6 hPa | 0 mm | - | - | - |
| 1787416510 | 32.22° C | 66% | 1016.6 hPa | 0 mm | - | - | - |
| 1787416333 | 32.22° C | 65% | 1016.9 hPa | 0 mm | - | - | - |
| 1787416210 | 32.22° C | 65% | 1016.9 hPa | 0 mm | - | - | - |
| 1787416030 | 32.78° C | 65% | 1016.9 hPa | 0 mm | - | - | - |
| 1787415980 | 32.78° C | 65% | 1016.9 hPa | 0 mm | - | - | - |
| 1787415910 | 32.78° C | 65% | 1016.9 hPa | 0 mm | - | - | - |
| 1787415610 | 32.78° C | 65% | 1017.1 hPa | 0 mm | - | - | - |
| 1787415310 | 32.22° C | 66% | 1017.2 hPa | 0 mm | - | - | - |
| 1787415010 | 32.22° C | 65% | 1017.3 hPa | 0 mm | - | - | - |
| 1787414710 | 32.22° C | 65% | 1017.4 hPa | 0 mm | - | - | - |
| 1787414462 | 32.78° C | 65% | 1017.4 hPa | 0 mm | - | - | - |
| 1787414410 | 32.78° C | 65% | 1017.4 hPa | 0 mm | - | - | - |
* Rain latest hour (hover to see other rain measurements)
** Current wind speed in m/s (hover to see current wind gust speed)